Location: Godzisko
(49.9648°N, 19.4576°E)
Time: 07:34:23
(UTC+00:00)

RESURS DK-1 - Pass Details

Date: 20 April 2021
Orbit: 554 x 563 km, 69.9° (Epoch: 05 May)

Event Time Altitude Azimuth Distance (km) Brightness Sun altitude
Rises 02:55:21 0° 332° (NNW) 2,765 5.9 -7.3°
Reaches altitude 10° 02:57:39 10° 339° (NNW) 1,865 5.1 -7.0°
Maximum altitude 03:01:40 46° 53° (NE) 763 3.7 -6.4°
Drops below altitude 10° 03:05:41 10° 128° (SE) 1,855 5.4 -5.8°
Sets 03:07:57 0° 134° (SE) 2,748 6.2 -5.5°
